TimeEST,TemperatureF,Dew PointF,Humidity,Sea Level PressureIn,VisibilityMPH,Wind Direction,Wind SpeedMPH,Gust SpeedMPH,PrecipitationIn,Events,Conditions,WindDirDegrees,DateUTC
12:53 AM,53.1,48.0,83,30.26,10.0,Calm,Calm,-,N/A,Fog,Patches of Fog,0,2012-12-04 05:53:00
1:53 AM,52.0,48.9,89,30.25,10.0,Calm,Calm,-,N/A,Fog,Patches of Fog,0,2012-12-04 06:53:00
2:53 AM,51.1,46.9,86,30.25,10.0,Calm,Calm,-,N/A,Fog,Patches of Fog,0,2012-12-04 07:53:00
3:06 AM,51.8,46.4,82,30.25,10.0,Calm,Calm,-,N/A,Fog,Patches of Fog,0,2012-12-04 08:06:00
3:40 AM,51.8,48.2,88,30.24,1.5,Calm,Calm,-,N/A,Fog,Patches of Fog,0,2012-12-04 08:40:00
3:51 AM,51.8,48.2,88,30.25,0.5,Calm,Calm,-,N/A,Fog,Patches of Fog,0,2012-12-04 08:51:00
3:53 AM,50.0,48.0,93,30.25,0.5,Calm,Calm,-,N/A,Fog,Fog,0,2012-12-04 08:53:00
4:53 AM,51.1,48.9,92,30.25,0.5,Calm,Calm,-,N/A,Fog,Fog,0,2012-12-04 09:53:00
5:00 AM,51.8,50.0,94,30.25,0.2,Calm,Calm,-,N/A,Fog,Fog,0,2012-12-04 10:00:00
5:08 AM,51.8,48.2,88,30.25,0.8,Calm,Calm,-,N/A,,Overcast,0,2012-12-04 10:08:00
5:15 AM,51.8,48.2,88,30.25,2.0,Calm,Calm,-,N/A,,Overcast,0,2012-12-04 10:15:00
5:23 AM,51.8,48.2,88,30.25,1.0,Calm,Calm,-,N/A,,Overcast,0,2012-12-04 10:23:00
5:50 AM,50.0,48.2,94,30.25,0.8,Calm,Calm,-,N/A,,Mist,0,2012-12-04 10:50:00
5:53 AM,51.1,48.9,92,30.25,0.8,Calm,Calm,-,N/A,,Mist,0,2012-12-04 10:53:00
6:14 AM,50.0,48.2,94,30.26,0.2,Calm,Calm,-,N/A,Fog,Fog,0,2012-12-04 11:14:00
6:36 AM,50.0,48.2,94,30.27,0.5,Calm,Calm,-,N/A,Fog,Fog,0,2012-12-04 11:36:00
6:40 AM,51.8,48.2,88,30.27,0.2,Calm,Calm,-,N/A,Fog,Fog,0,2012-12-04 11:40:00
6:53 AM,51.1,48.9,92,30.27,0.2,Calm,Calm,-,N/A,Fog,Fog,0,2012-12-04 11:53:00
7:03 AM,51.8,48.2,88,30.28,0.5,Calm,Calm,-,N/A,Fog,Fog,0,2012-12-04 12:03:00
7:22 AM,51.8,48.2,88,30.29,1.0,Calm,Calm,-,N/A,,Overcast,0,2012-12-04 12:22:00
7:31 AM,50.0,48.2,94,30.30,3.0,Calm,Calm,-,N/A,,Overcast,0,2012-12-04 12:31:00
7:53 AM,51.1,48.9,92,30.30,3.0,Calm,Calm,-,N/A,,Overcast,0,2012-12-04 12:53:00
7:56 AM,51.8,48.2,88,30.31,1.8,Calm,Calm,-,N/A,,Overcast,0,2012-12-04 12:56:00
8:08 AM,51.8,50.0,94,30.31,0.5,Calm,Calm,-,N/A,Fog,Fog,0,2012-12-04 13:08:00
8:26 AM,53.6,53.6,100,30.31,2.0,Calm,Calm,-,N/A,,Overcast,0,2012-12-04 13:26:00
8:41 AM,55.4,53.6,94,30.31,7.0,Calm,Calm,-,N/A,,Mostly Cloudy,0,2012-12-04 13:41:00
8:48 AM,55.4,53.6,94,30.31,8.0,Calm,Calm,-,N/A,,Mostly Cloudy,0,2012-12-04 13:48:00
8:53 AM,57.0,54.0,89,30.31,8.0,Calm,Calm,-,N/A,,Mostly Cloudy,0,2012-12-04 13:53:00
9:53 AM,63.0,59.0,87,30.32,10.0,East,3.5,-,N/A,,Mostly Cloudy,100,2012-12-04 14:53:00
10:53 AM,70.0,59.0,68,30.32,10.0,Calm,Calm,-,N/A,,Mostly Cloudy,0,2012-12-04 15:53:00
11:53 AM,72.0,59.0,64,30.30,10.0,SSE,5.8,-,N/A,,Overcast,160,2012-12-04 16:53:00
12:53 PM,75.9,55.9,50,30.27,10.0,South,5.8,-,N/A,,Mostly Cloudy,190,2012-12-04 17:53:00
1:53 PM,78.1,53.1,42,30.24,10.0,South,9.2,-,N/A,,Mostly Cloudy,170,2012-12-04 18:53:00
2:53 PM,78.1,52.0,40,30.23,10.0,South,8.1,-,N/A,,Scattered Clouds,170,2012-12-04 19:53:00
3:53 PM,77.0,50.0,39,30.22,10.0,South,8.1,-,N/A,,Scattered Clouds,170,2012-12-04 20:53:00
4:53 PM,75.0,51.1,43,30.22,10.0,South,3.5,-,N/A,,Scattered Clouds,180,2012-12-04 21:53:00
5:53 PM,71.1,52.0,51,30.23,10.0,South,3.5,-,N/A,,Mostly Cloudy,170,2012-12-04 22:53:00
6:53 PM,64.9,52.0,63,30.23,10.0,Calm,Calm,-,N/A,,Partly Cloudy,0,2012-12-04 23:53:00
7:53 PM,60.1,51.1,72,30.23,10.0,Calm,Calm,-,N/A,,Partly Cloudy,0,2012-12-05 00:53:00
8:53 PM,59.0,51.1,75,30.23,10.0,Calm,Calm,-,N/A,,Clear,0,2012-12-05 01:53:00
9:53 PM,57.9,51.1,78,30.24,10.0,Calm,Calm,-,N/A,,Clear,0,2012-12-05 02:53:00
10:53 PM,55.9,50.0,80,30.23,10.0,Calm,Calm,-,N/A,,Clear,0,2012-12-05 03:53:00
11:53 PM,55.0,50.0,83,30.22,10.0,Calm,Calm,-,N/A,,Clear,0,2012-12-05 04:53:00